Simultaneous Nadir Overpasses (SNOs) Predictions

Prediction of SNOs between LANDSAT-8 and METOP-A Satellite Orbit:

Table of predicted SNOs for the next 14.0 days since TLE Epoch: 3/26/2016
Index Date (LANDSAT-8) Time (LANDSAT-8) Lat,Lon (LANDSAT-8) SZA (LANDSAT-8 ) Date (METOP-A) Time (METOP-A) Lat,Lon (METOP-A) SZA (METOP-A ) Distance(km) Time Diff (sec)
1 03/27/2016 17:18:15 -81.12, 139.90 99.96 03/27/2016 17:17:48 -81.12, 140.05 99.96 2.57 27
2 03/27/2016 18:07:41 81.13, -52.36 80.04 03/27/2016 18:08:28 81.13, -52.53 80.05 2.93 47
3 03/30/2016 12:52:28 -81.12,-153.65 101.03 03/30/2016 12:52:12 -81.12,-153.52 101.02 2.18 16
4 03/30/2016 13:41:53 81.15, 14.43 79.03 03/30/2016 13:42:50 81.15, 14.63 79.07 3.32 57
5 04/02/2016 08:26:41 -81.12, -87.28 102.10 04/02/2016 08:26:36 -81.12, -87.12 102.08 2.93 5
6 04/02/2016 09:16:06 81.14, 80.78 77.95 04/02/2016 09:17:15 81.14, 80.63 77.96 2.61 69
7 04/05/2016 03:11:27 81.11, 171.38 76.84 04/05/2016 03:10:20 81.10, 171.34 76.81 0.99 67
8 04/05/2016 04:00:53 -81.13, -20.64 103.12 04/05/2016 04:01:00 -81.12, -20.74 103.13 1.87 7
9 04/07/2016 22:45:38 81.11,-122.08 75.82 04/07/2016 22:44:42 81.11,-121.95 75.81 2.26 56




NCC Satellite Simultaneous Nadir Overpasses (SNOs) Prediction Service
